Torna al catalogo

STARLINK-34840

AttivoComunicazioniVLEO
NORAD 66406·PAYLOAD·🇺🇸 United States

Lanciato Nov 8, 2025 da Cape Canaveral Space Force Station

Loading…

Prossimi Passaggi (prossime 24 ore)

TLE

AggiornatoSource: CelesTrak SupGP

Epoca: Sep 15, 2026, 03:14 UTC

1 66406C 25257AC  26258.13520833 -.00019030  00000+0 -56218-3 0  2588
2 66406  53.1598  52.7244 0001051  79.8578 131.8785 15.34404145    15

Traccia STARLINK-34840 in tempo reale con AllMySat

Download on the App Store